Tucson Davis Monthan, AZ

8:31 PM MST on June 24, 2018 (GMT -0700)
Davis-Monthan Air Force Base

Weather History for KDMA - December, 2017

Change the Weather History Date:

Tuesday, December 19, 2017

  Actual Average Record
Temperature  
Mean Temperature 50 °F -  
Max Temperature 63 °F 65 °F 79 °F (1955)
Min Temperature 38 °F 40 °F 31 °F (1968)
Degree Days  
Heating Degree Days 14    
Moisture  
Dew Point 39 °F    
Average Humidity 73    
Maximum Humidity 99    
Minimum Humidity 33    
Precipitation  
Precipitation 0.00 in - - ()
Sea Level Pressure  
Sea Level Pressure 30.16 in    
Wind  
Wind Speed 6 mph (SSE)    
Max Wind Speed 9 mph    
Max Gust Speed -    
Visibility 10 miles    
Events      
Averages and records for this station are not official NWS values.
T = Trace of Precipitation, MM = Missing Value Source: NWS Daily Summary

Daily Weather History Graph

Daily Weather History Graph

Search for Another Location

Airport or City:

Astronomy

Dec. 19, 2017 Rise Set
Actual Time 7:19 AM MST 5:22 PM MST
Civil Twilight 6:52 AM MST 5:49 PM MST
Nautical Twilight 6:21 AM MST 6:19 PM MST
Astronomical Twilight 5:51 AM MST 6:49 PM MST
Moon 8:17 AM MST (12/19) 6:51 PM MST (12/19)
Length of Visible Light 10h 56m
Length of Day
10h 02m
New Moon, 2% of the Moon is Illuminated
Dec 19
New Moon
Dec 26
First Quarter
Jan 1
Full
Jan 8
Last Quarter
Jan 16
New

Hourly Weather History & Observations

Time (MST) Temp. Windchill Dew Point Humidity Pressure Visibility Wind Dir Wind Speed Gust Speed Precip Events Conditions
12:58 AM 44.1 °F 39.5 °F 39.9 °F 85% 30.12 in 10.0 mi SE 8.1 mph - N/A   Clear
1:58 AM 42.6 °F 39.0 °F 39.9 °F 90% 30.13 in 10.0 mi SSE 5.8 mph - N/A   Clear
2:58 AM 41.2 °F 38.2 °F 39.4 °F 93% 30.13 in 10.0 mi SSE 4.6 mph - N/A   Clear
3:58 AM 40.1 °F 35.3 °F 38.8 °F 95% 30.14 in 10.0 mi ESE 6.9 mph - N/A   Clear
4:58 AM 39.7 °F 33.7 °F 39.6 °F 99% 30.14 in 10.0 mi SE 9.2 mph - N/A   Clear
5:58 AM 39.7 °F 34.9 °F 39.6 °F 99% 30.15 in 10.0 mi SE 6.9 mph - N/A   Clear
6:58 AM 38.5 °F - 38.3 °F 99% 30.18 in 10.0 mi Calm Calm - N/A   Clear
7:58 AM 39.4 °F 34.5 °F 39.2 °F 99% 30.20 in 10.0 mi SSE 6.9 mph - N/A   Clear
8:58 AM 43.2 °F 37.9 °F 43.0 °F 99% 30.21 in 10.0 mi SE 9.2 mph - N/A   Clear
9:58 AM 48.9 °F - 44.2 °F 84% 30.22 in 10.0 mi SE 4.6 mph - N/A   Clear
10:58 AM 54.3 °F - 44.4 °F 69% 30.21 in 10.0 mi South 5.8 mph - N/A   Clear
11:58 AM 58.8 °F - 47.1 °F 65% 30.18 in 10.0 mi SW 3.5 mph - N/A   Clear
12:58 PM 62.8 °F - 47.3 °F 57% 30.15 in 10.0 mi SW 3.5 mph - N/A   Clear
1:58 PM 63.7 °F - 38.8 °F 40% 30.13 in 10.0 mi West 3.5 mph - N/A   Clear
2:58 PM 63.3 °F - 35.2 °F 35% 30.13 in 10.0 mi NW 9.2 mph - N/A   Clear
3:58 PM 63.3 °F - 33.8 °F 33% 30.13 in 10.0 mi NW 4.6 mph - N/A   Clear
4:58 PM 61.7 °F - 39.6 °F 44% 30.13 in 10.0 mi NW 6.9 mph - N/A   Clear
5:58 PM 55.0 °F - 37.2 °F 51% 30.15 in 10.0 mi NNW 3.5 mph - N/A   Clear
6:58 PM 51.1 °F - 36.3 °F 57% 30.18 in 10.0 mi Calm Calm - N/A   Clear
7:58 PM 50.5 °F - 36.7 °F 59% 30.18 in 10.0 mi Calm Calm - N/A   Clear
8:58 PM 46.6 °F - 36.5 °F 68% 30.19 in 10.0 mi Calm Calm - N/A   Clear
9:58 PM 45.0 °F - 37.2 °F 74% 30.18 in 10.0 mi Calm Calm - N/A   Clear
10:58 PM 43.5 °F 39.4 °F 38.1 °F 81% 30.17 in 10.0 mi SE 6.9 mph - N/A   Clear
11:58 PM 42.6 °F 38.4 °F 36.9 °F 80% 30.16 in 10.0 mi ESE 6.9 mph - N/A   Clear